Powrót do katalogu

INMARSAT 4-F1

AktywnyŁącznośćGEO
NORAD 28628·PAYLOAD·🇮🇲 IM

Wystrzelony Mar 11, 2005 z Cape Canaveral Space Force Station

Loading…

TLE

ŚwieżeSource: Space-Track

Epoka: Sep 14, 2026, 17:37 UTC

1 28628U 05009A   26257.73428956  .00000027  00000-0  00000-0 0  9995
2 28628   5.2929  42.8159 0002517 137.0004 256.3612  1.00273306 78578

Śledź INMARSAT 4-F1 w czasie rzeczywistym z AllMySat

Download on the App Store